This is the latest recevied weather packets stored in our database for station/object YM7KGL-1. If no packets are shown the sender has not sent any weather packets the latest 10 day(s).
| Time | Temp. | Humidity | Pressure | Rain* | Wind** | Luminosity | Snow |
|---|---|---|---|---|---|---|---|
| 1777572246 | 17.22° C | 48% | 1015.6 hPa | - | - | - | - |
| 1777571514 | 17.78° C | 48% | 1015.6 hPa | - | - | - | - |
| 1777571346 | 17.22° C | 49% | 1015.6 hPa | - | - | - | - |
| 1777570445 | 17.22° C | 48% | 1015.7 hPa | - | - | - | - |
| 1777569544 | 17.78° C | 48% | 1015.6 hPa | - | - | - | - |
| 1777569487 | 17.78° C | 48% | 1015.7 hPa | - | - | - | - |
| 1777568587 | 18.33° C | 47% | 1015.5 hPa | - | - | - | - |
| 1777567687 | 19.44° C | 46% | 1015.5 hPa | - | - | - | - |
| 1777564980 | 18.33° C | 48% | 1015.5 hPa | - | - | - | - |
| 1777564079 | 18.89° C | 48% | 1015.3 hPa | - | - | - | - |
| 1777563179 | 18.89° C | 48% | 1015.4 hPa | - | - | - | - |
| 1777562279 | 18.89° C | 47% | 1015.5 hPa | - | - | - | - |
| 1777562070 | 18.89° C | 48% | 1015.5 hPa | - | - | - | - |
| 1777561170 | 19.44° C | 47% | 1015.4 hPa | - | - | - | - |
| 1777560347 | 20.56° C | 47% | 1015.7 hPa | - | - | - | - |
| 1777560269 | 20° C | 47% | 1015.5 hPa | - | - | - | - |
| 1777559369 | 20.56° C | 47% | 1015.6 hPa | - | - | - | - |
| 1777558468 | 20.56° C | 47% | 1015.7 hPa | - | - | - | - |
| 1777558093 | 21.67° C | 47% | 1016.1 hPa | - | - | - | - |
| 1777557569 | 21.11° C | 47% | 1015.7 hPa | - | - | - | - |
| 1777556669 | 21.67° C | 46% | 1015.9 hPa | - | - | - | - |
| 1777555769 | 21.67° C | 46% | 1016.1 hPa | - | - | - | - |
| 1777554869 | 21.67° C | 47% | 1016.1 hPa | - | - | - | - |
| 1777553975 | 21.67° C | 47% | 1016.3 hPa | - | - | - | - |
| 1777553074 | 21.67° C | 47% | 1016.4 hPa | - | - | - | - |
* Rain since midnight (hover to see other rain measurements)
** Current wind speed in m/s (hover to see current wind gust speed)